User: anonymous   Login
Location: Fremont
(37.5480°N, 121.9880°W)
Time: 14:28:09
(UTC-07:00)
Language:

Cosmos 1766 - Orbit

View from above orbital plane
View from above orbital plane
View from above satellite
View from above satellite

Ground track
Ground track

The orbit data is extracted from the following two-line orbital elements,

1 16881U 86055A   15245.63607097 +.00001944 +00000-0 +12229-3 0  9990
2 16881 082.5076 302.3919 0017880 174.7458 185.3962 15.08525626561681
Epoch (UTC): 02 September 2015 15:15:56
Eccentricity: 0.0017880
inclination: 82.5076°
perigee height: 528 km
apogee height: 553 km
right ascension of ascending node: 302.3919°
argument of perigee: 174.7458°
revolutions per day: 15.08525626
mean anomaly at epoch: 185.3962°
orbit number at epoch: 56168

The dashed part of the orbit path shows where the satellite is in the earth's shadow,  

DLR